N1LTP Weather Reports


time (UTC)temp
F
wind
direction
speed
knots
gust
knots
rain 1hr
in
rain 24hr
in
rain mn
in
humidity
%
barometer
mb
20260903183100 77 94 1.7 3.5 0.00 0.23 0.23 82 1011.5
20260903181558 78 329 0.0 1.7 0.00 0.23 0.23 83 1011.7
20260903180106 78 329 0.0 2.6 0.00 0.23 0.23 81 1011.7
20260903174609 77 348 0.9 2.6 0.00 0.23 0.23 82 1011.8
20260903173055 77 348 0.9 4.3 0.00 0.23 0.23 83 1011.8
20260903171549 76 332 1.7 4.3 0.00 0.23 0.23 85 1012.0
20260903170105 74 316 0.9 5.2 0.00 0.23 0.23 87 1012.0
20260903164549 73 339 0.0 2.6 0.00 0.23 0.23 89 1011.9
20260903163036 72 336 0.0 1.7 0.00 0.23 0.23 90 1011.9
20260903161534 72 333 0.0 3.5 0.00 0.23 0.23 91 1011.9
20260903160033 71 350 0.0 1.7 0.00 0.23 0.23 92 1012.1
20260903154528 71 360 0.9 4.3 0.00 0.23 0.23 92 1012.4
20260903153025 71 340 0.9 3.5 0.00 0.23 0.23 92 1012.6
20260903151525 71 342 0.0 1.7 0.00 0.23 0.23 92 1012.7
20260903150027 70 338 0.0 1.7 0.00 0.23 0.23 92 1012.8
20260903144519 70 338 0.0 0.9 0.00 0.23 0.23 92 1013.1
20260903143017 70 338 0.0 5.2 0.00 0.23 0.23 92 1013.2
20260903141519 69 346 0.0 2.6 0.00 0.23 0.23 93 1013.4
20260903140012 69 346 0.0 1.7 0.00 0.23 0.23 92 1013.7
20260903134511 69 346 0.0 0.9 0.00 0.23 0.23 93 1013.7
20260903133010 68 346 0.0 0.0 0.00 0.23 0.23 92 1013.6
20260903131507 68 346 0.0 0.9 0.00 0.23 0.23 92 1013.6
20260903130006 67 346 0.0 1.7 0.00 0.23 0.23 92 1013.7
20260903124503 67 346 0.0 1.7 0.00 0.23 0.23 92 1013.8
20260903123100 66 346 0.0 0.9 0.01 0.23 0.23 92 1013.9
20260903121558 66 346 0.0 0.0 0.03 0.23 0.23 92 1014.1
20260903120055 65 346 0.0 1.7 0.04 0.23 0.23 92 1014.2
20260903114554 65 332 0.0 1.7 0.05 0.23 0.23 92 1014.5
20260903113051 65 328 0.0 3.5 0.04 0.22 0.22 91 1014.6
20260903111620 64 293 0.0 2.6 0.03 0.20 0.20 91 1014.4
20260903110059 64 43 0.0 1.7 0.02 0.19 0.19 91 1014.5
20260903104600 64 44 0.0 0.9 0.03 0.18 0.18 91 1014.3
20260903103047 64 44 0.0 1.7 0.08 0.18 0.18 91 1014.1
20260903101548 63 48 0.0 0.9 0.08 0.17 0.17 90 1014.1
20260903100043 63 48 0.0 1.7 0.08 0.17 0.17 90 1014.1
20260903094540 63 71 0.0 0.9 0.08 0.15 0.15 90 1014.4
20260903093042 63 74 0.0 0.0 0.06 0.10 0.10 89 1014.5
20260903091537 63 74 0.0 0.0 0.09 0.09 0.09 89 1014.5
20260903090040 63 74 0.0 0.9 0.09 0.09 0.09 89 1014.6
20260903084536 63 74 0.0 0.9 0.07 0.07 0.07 88 1014.8
20260903083031 63 74 0.0 0.0 0.04 0.04 0.04 88 1015.3
20260903081531 63 74 0.0 0.9 0.00 0.00 0.00 87 1015.4
20260903080029 63 74 0.0 0.0 0.00 0.00 0.00 87 1015.2
20260903074527 63 74 0.0 0.0 0.00 0.00 0.00 86 1015.5
20260903073036 63 74 0.0 0.0 0.00 0.00 0.00 86 1015.7
20260903071523 63 74 0.0 0.0 0.00 0.00 0.00 86 1016.0
20260903070033 63 74 0.0 0.9 0.00 0.00 0.00 85 1016.3
20260903064519 63 74 0.0 0.9 0.00 0.00 0.00 86 1016.5
20260903063016 63 74 0.0 0.9 0.00 0.00 0.00 86 1016.8
20260903061531 63 74 0.0 0.9 0.00 0.00 0.00 86 1017.0
20260903060013 62 74 0.0 0.0 0.00 0.00 0.00 85 1017.2
20260903054510 62 74 0.0 0.0 0.00 0.00 0.00 86 1017.6
20260903053010 62 74 0.0 0.0 0.00 0.00 0.00 86 1017.6
20260903051510 62 74 0.0 0.0 0.00 0.00 0.00 86 1017.9
20260903050010 62 74 0.0 0.0 0.00 0.00 0.00 85 1018.2
20260903044508 62 74 0.0 0.0 0.00 0.00 0.00 86 1018.3
20260903043004 62 74 0.0 0.0 0.00 0.00 0.00 85 1018.1
20260903041502 62 74 0.0 0.0 0.00 0.00 0.00 85 1017.9
20260903040108 62 74 0.0 0.0 0.00 0.00 0.00 86 1017.7
20260903034558 62 74 0.0 0.0 0.00 0.00 0.00 85 1018.1
20260903033056 62 74 0.0 0.0 0.00 0.00 0.00 85 1018.5
20260903031604 61 74 0.0 0.0 0.00 0.00 0.00 85 1018.6
20260903030112 61 74 0.0 0.0 0.00 0.00 0.00 85 1018.5
20260903024556 62 74 0.0 0.0 0.00 0.00 0.00 84 1018.8
20260903023054 62 74 0.0 0.0 0.00 0.00 0.00 84 1019.1
20260903021553 62 74 0.0 0.0 0.00 0.00 0.00 84 1019.0
20260903020053 63 74 0.0 0.0 0.00 0.00 0.00 82 1018.8
20260903014600 63 74 0.0 0.0 0.00 0.00 0.00 82 1018.7
20260903013052 64 74 0.0 0.0 0.00 0.00 0.00 82 1018.9
20260903011606 64 74 0.0 0.0 0.00 0.00 0.00 82 1019.0
20260903010104 64 74 0.0 0.0 0.00 0.00 0.00 82 1019.1
20260903004549 65 74 0.0 0.0 0.00 0.00 0.00 81 1019.1
20260903003051 65 74 0.0 0.0 0.00 0.00 0.00 81 1019.2
20260903001549 66 74 0.0 0.0 0.00 0.00 0.00 80 1019.3
20260903000048 66 74 0.0 0.0 0.00 0.00 0.00 79 1019.6
20260902234548 66 74 0.0 0.0 0.00 0.00 0.00 78 1020.0
20260902233048 67 74 0.0 0.0 0.00 0.00 0.00 76 1019.7
20260902231605 68 74 0.0 0.0 0.00 0.00 0.00 75 1019.8
20260902230046 68 74 0.0 0.0 0.00 0.00 0.00 74 1020.0
20260902224559 69 74 0.0 3.5 0.00 0.00 0.00 72 1020.0
20260902223052 69 75 0.9 4.3 0.00 0.00 0.00 71 1019.9
20260902221601 70 88 0.0 3.5 0.00 0.00 0.00 71 1019.8
20260902220055 71 54 0.9 2.6 0.00 0.00 0.00 71 1019.6
20260902214543 71 44 0.9 2.6 0.00 0.01 0.00 71 1019.4
20260902213043 72 63 0.0 1.7 0.00 0.01 0.00 70 1019.3
20260902211542 73 59 0.0 3.5 0.00 0.01 0.00 68 1019.3
20260902210046 73 81 1.7 4.3 0.00 0.01 0.00 66 1019.6
20260902204547 73 65 1.7 5.2 0.00 0.03 0.00 63 1019.8
20260902203043 74 76 0.0 5.2 0.00 0.03 0.00 62 1019.6
20260902201549 74 102 0.0 1.7 0.00 0.03 0.00 62 1019.6
20260902200039 74 99 0.9 8.7 0.00 0.03 0.00 61 1019.6
20260902194538 74 80 1.7 4.3 0.00 0.05 0.00 60 1019.8
20260902193044 74 64 2.6 7.0 0.00 0.05 0.00 62 1020.0
20260902191537 74 138 0.0 5.2 0.00 0.05 0.00 62 1020.1
20260902190036 74 66 1.7 4.3 0.00 0.05 0.00 61 1020.0
20260902184535 74 140 0.0 3.5 0.00 0.07 0.00 64 1020.1